CAPE
1336 1282 1234 1084 818 439 244 100 35 0 0 0 0 0 0 14 84 166 223 677 888 1063 1431 1250 903 853 801 738 552 397 188 155 88 130 54 42 34 32 34 32 31 32 42
1159 1364 1289 1093 783 390 199 99 39 0 0 1 0 0 0 0 0 0 3 177 445 587 764 1147 1102 967 611 492 247 161 83 41 57 45 38 40 34 20 16 14 11 11 17
1041 1471 1377 1096 749 292 117 56 3 2 0 22 0 4 0 0 0 0 0 0 38 148 130 350 627 697 534 366 171 8 9 28 30 30 29 35 19 10 3 2 2 3 5
1084 1541 1390 1049 592 191 92 101 35 69 101 53 1 28 0 0 0 0 0 0 0 0 2 29 88 155 123 14 7 13 4 24 7 4 17 23 7 0 0 0 0 0 9
1164 1491 1302 940 375 146 79 272 114 192 305 53 17 5 0 0 0 0 0 0 0 0 0 0 5 7 14 24 9 10 8 6 6 8 22 9 0 0 0 0 0 0 1
1299 1376 1168 825 262 116 81 342 279 208 331 121 183 27 0 0 0 0 0 0 0 0 0 0 0 0 1 3 3 7 12 5 4 6 5 7 0 0 0 0 0 1 0
1506 1384 1104 705 266 43 180 276 363 169 152 7 13 0 0 0 0 0 0 0 0 0 0 0 0 0 0 1 2 6 12 15 10 10 18 9 10 0 0 0 6 4 0
1591 1449 1169 772 426 30 198 47 353 283 230 1 124 30 0 0 0 0 0 0 0 0 0 0 0 0 0 0 0 4 11 18 18 25 22 16 15 6 0 0 4 0 0
1656 1476 1301 924 586 128 223 15 297 271 306 44 6 9 0 2 0 0 0 0 0 0 0 0 0 0 0 0 0 0 0 0 11 18 18 13 11 3 2 0 3 0 0
1666 1472 1302 926 673 334 145 115 289 309 207 80 0 0 0 0 0 0 0 0 0 0 0 0 0 0 0 0 0 0 0 0 0 6 13 17 3 3 1 2 9 7 4
1516 1350 1282 921 675 367 143 281 242 221 67 51 0 0 0 0 0 0 0 0 0 0 0 0 0 0 0 0 0 0 0 0 0 0 5 14 12 13 14 9 8 12 6
1377 1328 1258 985 664 475 224 133 182 120 35 7 0 0 0 0 0 0 0 0 0 0 0 0 0 0 0 0 0 0 0 0 0 0 0 2 4 9 14 15 10 13 6
620 1017 1103 1013 679 483 261 131 145 99 1 0 0 0 0 0 0 0 0 0 0 0 0 0 0 0 0 0 0 0 0 0 0 0 0 0 0 0 2 12 17 11 16
523 162 957 872 828 502 248 125 121 118 0 1 0 0 0 0 0 0 0 0 0 0 0 0 0 0 0 0 0 0 0 0 0 0 0 0 0 0 0 0 0 7 12
620 184 72 766 795 653 342 124 86 85 4 0 0 0 0 0 0 0 0 0 0 0 0 0 0 0 0 0 0 0 0 0 0 0 0 0 0 0 0 0 0 0 0
4 25 0 108 141 898 559 241 134 68 18 0 0 0 0 0 0 0 0 0 0 0 0 0 0 0 0 0 0 0 0 0 0 0 0 0 0 0 0 0 0 0 0
4 3 19 93 438 1033 835 327 201 66 7 0 0 0 0 0 0 0 0 0 0 0 0 0 0 0 0 0 0 0 0 0 0 0 0 0 0 0 0 0 0 0 0
8 7 4 1 2 0 154 460 297 63 0 0 0 0 0 0 0 0 0 0 0 0 0 0 0 0 0 0 0 0 0 0 0 0 0 0 0 0 0 0 0 0 0
4 3 4 3 2 2 0 4 243 103 2 0 0 0 0 0 0 0 0 0 0 0 0 0 0 0 0 0 0 0 0 0 0 0 0 0 0 0 0 0 0 0 0
3 1 4 7 4 3 1 2 6 20 1 0 0 0 0 0 0 0 0 0 0 0 0 0 0 0 0 0 0 0 0 0 0 0 0 0 0 0 0 0 0 0 0
2 1 1 2 3 2 2 2 2 4 1 21 0 0 0 0 0 0 0 0 0 0 0 0 0 0 0 0 0 0 0 0 0 0 0 0 0 0 0 0 0 0 0
0 0 1 1 2 2 0 0 0 4 2 1 1 7 0 0 0 0 0 0 0 0 0 0 0 0 0 0 0 0 0 0 0 0 0 0 0 0 0 0 0 0 0
1 1 0 0 2 1 0 0 0 2 2 0 1 3 2 1 0 0 0 0 0 0 0 0 0 0 0 0 0 0 0 0 0 0 0 0 0 0 0 0 0 0 0
2 0 0 0 0 1 0 0 0 1 2 1 2 2 5 1 1 0 0 0 0 0 0 0 0 0 0 0 0 0 0 0 0 0 0 0 1 0 0 0 0 0 0
0 0 0 0 1 0 0 0 0 0 1 2 1 2 1 3 0 1 0 0 0 0 0 0 0 0 0 0 0 0 1 1 2 2 1 0 1 1 0 1 0 0 0
0 0 0 0 0 1 0 0 0 1 0 0 0 1 0 0 0 0 0 1 0 0 0 1 1 1 1 1 0 0 0 0 2 1 0 0 0 0 1 0 2 1 0
CIN
-121 -130 -122 -160 -224 -313 -394 -492 -547 -0 -0 -0 -0 -0 -0 -270 -350 -288 -260 -93 -39 -23 -10 -22 -62 -60 -61 -62 -85 -120 -189 -217 -264 -240 -237 -21 -19 -22 -22 -20 -16 -13 -12
-139 -131 -112 -160 -230 -338 -378 -449 -527 -0 -0 -213 -0 -0 -0 -0 -0 -0 -75 -281 -150 -110 -102 -42 -42 -54 -91 -123 -200 -231 -274 -108 -97 -116 -11 -11 -21 -29 -34 -31 -21 -9 -4
-159 -114 -101 -144 -249 -373 -405 -426 -542 -514 -0 -375 -0 -66 -0 -0 -0 -0 -0 -0 -346 -228 -254 -172 -117 -97 -109 -146 -216 -2 -0 -6 -8 -5 -4 -13 -24 -23 -24 -25 -21 -14 -7
-154 -77 -83 -150 -270 -390 -433 -368 -429 -406 -351 -348 -73 -367 -0 -0 -0 -0 -0 -0 -0 -0 -6 -323 -256 -218 -224 -5 -0 -0 -0 -1 -0 -0 -1 -12 -20 -0 -0 -0 -0 -0 -4
-143 -84 -104 -159 -306 -367 -416 -289 -352 -347 -281 -351 -332 -200 -0 -0 -0 -0 -0 -0 -0 -0 -0 -18 -20 -38 -29 -12 -0 -0 -0 -0 -0 -0 -2 -12 -0 -0 -0 -0 -0 -0 -1
-110 -80 -89 -158 -315 -323 -384 -228 -249 -310 -251 -332 -201 -228 -0 -0 -0 -0 -0 -0 -0 -0 -0 -0 -0 -1 -1 -5 -0 -0 -0 -0 -0 -0 -0 -2 -0 -0 -0 -0 -0 -1 -0
-67 -73 -85 -163 -281 -323 -320 -280 -248 -312 -288 -368 -297 -0 -0 -0 -0 -0 -0 -0 -0 -0 -0 -0 -0 -0 -0 -2 -1 -0 -0 -0 -0 -0 -0 -0 -0 -0 -0 -0 -0 -0 -0
-30 -28 -54 -135 -235 -346 -257 -323 -205 -222 -209 -159 -248 -112 -0 -0 -0 -0 -0 -0 -0 -0 -0 -0 -0 -0 -0 -0 -0 -2 -0 -0 -0 -0 -0 -1 -0 -0 -0 -0 -0 -0 -0
-27 -24 -38 -96 -193 -310 -262 -350 -237 -218 -253 -295 -342 -166 -0 -162 -0 -0 -0 -0 -0 -0 -0 -0 -0 -0 -0 -0 -0 -0 -0 -0 -2 -0 -0 -0 -0 -0 -0 -0 -0 -0 -0
-13 -21 -41 -94 -128 -244 -284 -298 -244 -247 -270 -255 -0 -0 -0 -0 -0 -0 -0 -0 -0 -0 -0 -0 -0 -0 -0 -0 -0 -0 -0 -0 -0 -5 -0 -0 -0 -0 -0 -0 -0 -0 -0
-43 -14 -29 -97 -97 -171 -257 -245 -231 -225 -305 -302 -0 -0 -0 -0 -0 -0 -0 -0 -0 -0 -0 -0 -0 -0 -0 -0 -0 -0 -0 -0 -0 -0 -3 -0 -0 -0 -0 -0 -0 -0 -0
-22 -4 -12 -63 -105 -154 -215 -242 -248 -288 -379 -342 -0 -0 -0 -0 -0 -0 -0 -0 -0 -0 -0 -0 -0 -0 -0 -0 -0 -0 -0 -0 -0 -0 -0 -4 -0 -0 -0 -0 -0 -0 -0
-1 -2 -8 -12 -66 -144 -208 -280 -233 -250 -144 -0 -0 -0 -0 -0 -0 -0 -0 -0 -0 -0 -0 -0 -0 -0 -0 -0 -0 -0 -0 -0 -0 -0 -0 -0 -0 -0 -0 -0 -0 -0 -0
-11 -36 -11 -26 -32 -102 -203 -253 -241 -238 -28 -233 -0 -0 -0 -0 -0 -0 -0 -0 -0 -0 -0 -0 -0 -0 -0 -0 -0 -0 -0 -0 -0 -0 -0 -0 -0 -0 -0 -0 -0 -0 -0
-9 -47 -107 -6 -21 -56 -174 -218 -224 -219 -186 -0 -0 -0 -0 -0 -0 -0 -0 -0 -0 -0 -0 -0 -0 -0 -0 -0 -0 -0 -0 -0 -0 -0 -0 -0 -0 -0 -0 -0 -0 -0 -0
-0 -43 -0 -155 -10 -3 -55 -161 -188 -222 -329 -0 -0 -0 -0 -0 -0 -0 -0 -0 -0 -0 -0 -0 -0 -0 -0 -0 -0 -0 -0 -0 -0 -0 -0 -0 -0 -0 -0 -0 -0 -0 -0
-0 -0 -1 -23 -18 -8 -3 -84 -152 -223 -331 -0 -0 -0 -0 -0 -0 -0 -0 -0 -0 -0 -0 -0 -0 -0 -0 -0 -0 -0 -0 -0 -0 -0 -0 -0 -0 -0 -0 -0 -0 -0 -0
-0 -0 -0 -0 -0 -0 -21 -38 -92 -219 -16 -0 -0 -0 -0 -0 -0 -0 -0 -0 -0 -0 -0 -0 -0 -0 -0 -0 -0 -0 -0 -0 -0 -0 -0 -0 -0 -0 -0 -0 -0 -0 -0
-0 -0 -0 -0 -0 -0 -0 -0 -75 -153 -144 -0 -0 -0 -0 -0 -0 -0 -0 -0 -0 -0 -0 -0 -0 -0 -0 -0 -0 -0 -0 -0 -0 -0 -0 -0 -0 -0 -0 -0 -0 -0 -0
-0 -0 -0 -0 -0 -0 -0 -0 -0 -49 -60 -0 -0 -0 -0 -0 -0 -0 -0 -0 -0 -0 -0 -0 -0 -0 -0 -0 -0 -0 -0 -0 -0 -0 -0 -0 -0 -0 -0 -0 -0 -0 -0
-0 -0 -0 -0 -0 -0 -0 -0 -0 -0 -0 -91 -5 -0 -0 -0 -0 -0 -0 -0 -0 -0 -0 -0 -0 -0 -0 -0 -0 -0 -0 -0 -0 -0 -0 -0 -0 -0 -0 -0 -0 -0 -0
-0 -0 -0 -0 -0 -0 -0 -0 -0 -0 -0 -0 -0 -5 -0 -0 -0 -0 -0 -0 -0 -0 -0 -0 -0 -0 -0 -0 -0 -0 -0 -0 -0 -0 -0 -0 -0 -0 -0 -0 -0 -0 -0
-0 -0 -0 -0 -0 -0 -0 -0 -0 -0 -0 -0 -0 -0 -2 -3 -0 -0 -0 -0 -0 -0 -0 -0 -0 -0 -0 -0 -0 -0 -0 -0 -0 -0 -0 -0 -0 -0 -0 -0 -0 -0 -0
-0 -0 -0 -0 -0 -0 -0 -0 -0 -0 -0 -0 -0 -0 -0 -0 -0 -0 -0 -0 -0 -0 -0 -0 -0 -0 -0 -0 -0 -0 -0 -0 -0 -0 -0 -0 -0 -0 -0 -0 -0 -0 -0
-0 -0 -0 -0 -0 -0 -0 -0 -0 -0 -0 -0 -0 -0 -0 -0 -0 -0 -0 -0 -0 -0 -0 -0 -0 -0 -0 -0 -0 -0 -0 -0 -0 -0 -0 -0 -0 -0 -0 -0 -0 -0 -0
-0 -0 -0 -0 -0 -0 -0 -0 -0 -0 -0 -0 -0 -0 -0 -0 -0 -0 -0 -0 -0 -0 -0 -0 -0 -0 -0 -0 -0 -0 -0 -0 -0 -0 -0 -0 -0 -0 -0 -0 -0 -0 -0
Wind_Speed
12 11 12 11 9 8 9 8 8 7 6 6 5 5 3 8 8 5 4 13 11 13 17 17 19 19 19 16 15 15 14 14 12 12 12 12 12 12 12 11 12 12 12
13 12 12 12 10 10 9 9 10 7 6 4 6 6 4 11 10 8 5 7 12 12 13 15 17 18 18 16 15 13 12 9 10 11 11 11 13 12 11 10 9 10 10
17 15 13 12 11 11 12 9 8 5 5 5 6 6 6 11 10 9 7 5 6 8 12 13 13 14 15 14 11 12 11 10 11 9 10 12 12 12 11 11 9 9 10
20 16 13 13 13 11 11 10 10 9 8 7 5 5 5 10 11 11 8 6 5 4 7 9 12 14 11 13 14 12 13 10 12 12 10 12 13 12 11 11 11 10 11
21 16 15 14 15 12 12 11 11 11 9 8 8 5 5 8 10 9 10 8 7 5 5 8 10 10 12 12 14 14 15 15 14 14 11 13 13 13 12 12 13 13 12
22 18 15 16 16 13 13 11 13 8 9 8 9 7 5 5 8 8 10 9 8 8 6 6 5 7 13 14 17 17 16 17 17 17 15 13 14 14 13 13 14 14 13
22 20 15 17 17 16 17 16 12 14 8 7 6 2 2 5 6 7 9 8 9 10 9 8 6 4 6 14 18 19 20 20 20 19 16 15 14 14 14 14 15 15 14
21 19 19 17 19 15 17 17 15 11 7 10 10 7 4 1 2 5 8 9 11 9 10 10 11 9 7 7 10 20 20 19 18 19 17 15 15 15 16 17 17 16 16
22 23 22 18 19 18 15 19 15 19 15 12 13 8 5 5 4 3 6 8 11 9 10 11 12 12 10 9 9 14 16 14 17 19 18 17 17 18 17 17 17 17 16
25 24 22 22 20 16 19 18 15 16 14 16 8 6 3 6 8 3 2 6 8 11 11 10 11 11 11 9 13 14 16 16 13 17 20 20 21 20 19 18 18 18 17
26 26 23 23 19 15 19 20 19 18 15 15 13 12 3 3 4 5 7 5 2 7 9 11 11 10 12 12 10 12 17 18 16 16 19 22 22 21 20 20 19 19 19
18 25 24 21 20 18 18 17 19 20 18 17 15 14 12 9 10 5 4 14 14 7 10 9 11 11 11 11 14 17 20 20 19 18 18 21 23 22 22 21 21 21 20
19 21 23 19 18 21 20 19 18 19 18 16 20 15 13 7 5 4 4 6 6 4 4 8 10 10 10 9 12 20 22 22 21 21 20 19 22 22 22 22 21 22 21
8 11 18 19 21 22 19 19 15 15 17 15 20 15 11 11 6 10 7 7 3 6 4 6 11 10 10 12 13 21 14 23 22 22 22 21 20 21 21 21 22 21 20
17 17 19 18 19 21 21 19 16 18 17 17 16 16 14 13 11 7 6 6 6 6 10 5 5 12 11 9 12 12 13 21 24 24 23 22 20 20 21 20 20 20 20
10 15 26 20 17 17 20 20 17 18 18 16 14 18 16 12 11 7 6 4 4 5 7 7 10 6 13 11 11 14 16 17 26 24 23 21 22 22 22 21 21 20 20
17 12 5 8 14 20 23 22 22 22 22 19 17 17 18 17 12 10 8 8 5 6 8 4 9 11 13 15 13 12 12 11 11 25 24 23 22 22 21 22 21 21 21
17 17 14 13 13 11 19 24 23 21 23 22 20 17 18 13 15 12 9 12 10 8 5 10 5 7 9 14 14 12 11 10 10 19 24 23 24 23 22 21 21 22 21
20 21 19 17 17 16 19 12 20 20 21 21 21 21 21 18 17 14 12 11 10 9 10 7 7 2 6 4 6 4 9 9 9 14 23 25 25 23 21 20 23 25 25
17 19 17 16 16 12 14 16 16 9 20 21 21 22 22 21 21 18 16 15 12 11 7 8 6 5 4 3 7 9 6 4 7 5 11 15 20 21 21 24 26 27 25
14 13 13 12 12 16 14 20 19 12 6 17 20 22 22 23 27 23 14 15 15 12 9 11 10 5 5 4 11 5 8 5 5 4 5 5 6 8 11 16 18 22 24
12 12 13 13 14 10 18 22 16 11 13 9 6 20 20 21 21 23 21 20 17 15 15 11 12 12 14 8 6 9 9 4 5 4 7 7 8 9 9 9 21 22 24
13 14 13 10 11 11 19 23 24 12 11 11 15 17 13 15 18 18 18 21 21 21 22 17 17 16 16 14 11 9 11 11 11 6 12 10 6 8 7 8 15 19 19
12 11 11 10 9 9 15 18 18 15 12 13 17 16 15 7 4 17 21 18 18 16 15 11 17 17 14 13 15 16 16 11 3 2 8 7 3 7 4 8 14 18 20
11 10 10 10 9 8 12 15 13 10 11 11 12 12 14 13 19 20 11 18 17 14 10 10 10 10 10 13 12 8 5 6 2 5 5 5 3 2 2 3 7 18 18
10 8 10 10 12 12 13 16 13 6 8 9 11 11 15 18 23 21 9 6 9 8 8 5 7 4 7 12 15 16 10 13 4 1 5 5 2 4 2 3 2 3 7
Wind_Direction
170 159 169 166 162 165 167 163 165 173 186 195 175 194 131 140 125 144 144 144 146 157 159 156 157 155 158 158 151 148 144 146 146 144 141 134 133 122 119 124 125 122 123
173 165 168 169 166 168 173 171 172 170 186 182 178 191 165 147 139 146 140 147 149 154 146 149 152 154 153 151 148 144 150 136 140 139 136 134 126 120 120 114 116 127 121
176 165 169 170 168 167 170 171 170 160 163 186 187 186 138 140 146 143 139 141 150 172 144 159 152 156 157 159 161 171 181 160 151 143 139 132 129 138 138 135 134 132 132
177 168 171 174 168 166 170 174 177 177 180 172 177 178 143 148 152 150 147 145 148 150 143 159 169 169 162 186 192 193 191 188 188 189 171 143 151 154 150 150 152 146 147
179 171 172 172 165 168 173 179 179 178 178 169 171 162 158 138 152 153 157 156 159 153 159 163 162 161 167 188 199 197 197 198 199 191 170 167 167 168 164 162 160 152 148
182 173 174 169 167 172 173 179 182 174 174 157 168 162 156 151 155 162 166 167 170 165 164 174 182 193 198 201 205 206 202 202 203 203 200 191 186 181 175 173 167 162 161
184 178 176 167 171 175 179 179 179 167 162 151 122 115 132 168 172 162 165 168 178 178 179 179 183 180 199 204 209 211 211 206 208 211 197 203 201 189 181 178 174 168 168
187 183 178 174 174 173 180 175 180 172 163 170 165 149 150 31 254 188 172 176 182 176 183 184 188 188 187 200 207 212 216 222 212 214 209 200 205 191 185 182 180 176 177
185 186 182 181 179 173 178 178 180 178 171 178 164 158 137 194 127 219 202 182 182 178 180 181 188 193 193 198 197 208 210 225 214 208 205 195 198 197 194 190 187 187 188
186 187 181 184 187 180 180 179 181 182 173 176 172 178 167 145 164 152 223 201 185 187 178 182 185 191 193 195 201 205 202 211 213 204 204 198 199 202 201 198 196 196 195
186 188 183 181 185 188 185 181 179 182 180 177 183 181 168 169 131 142 179 178 210 203 193 184 183 190 193 192 196 205 201 203 204 201 204 201 201 203 203 203 202 202 201
186 186 184 183 184 186 185 185 183 183 183 182 186 189 187 176 181 161 137 187 195 201 196 190 183 193 192 192 196 195 199 201 201 203 203 203 201 202 203 204 206 206 207
185 194 182 181 186 190 187 182 186 186 183 186 186 184 190 183 164 161 122 175 182 190 184 198 204 197 195 186 197 193 198 201 202 204 204 203 202 202 204 204 207 212 211
218 215 193 190 190 190 188 185 186 189 185 188 186 188 189 195 179 190 160 157 148 197 184 185 195 198 200 204 200 187 197 200 199 203 205 204 200 200 201 203 206 208 210
188 180 227 209 205 188 188 184 183 186 189 188 188 186 192 199 201 197 191 175 153 164 206 202 167 199 202 198 204 186 195 198 200 203 203 204 200 199 201 200 201 205 209
8 218 211 181 236 197 191 186 188 192 187 194 195 194 200 201 205 201 205 193 182 165 199 193 206 181 199 205 197 197 206 180 197 201 201 200 201 201 201 200 200 202 206
14 352 219 177 194 214 194 189 189 190 191 192 199 199 202 204 207 206 203 205 184 193 215 224 203 199 191 200 209 203 205 192 193 201 199 199 202 204 201 198 199 202 207
24 5 51 24 27 45 243 188 195 192 189 192 197 196 206 204 213 204 200 205 206 197 182 213 186 193 194 202 203 195 200 196 194 195 199 201 202 205 203 199 197 202 207
23 24 35 31 32 27 28 306 194 195 192 198 199 204 204 209 215 213 205 207 207 210 214 218 220 165 206 173 187 192 198 204 197 182 195 201 204 206 205 200 202 206 210
25 37 21 30 35 39 43 355 334 224 192 194 203 206 210 204 210 213 214 209 201 201 189 200 207 185 168 191 188 197 204 193 197 169 198 203 204 207 204 207 208 212 213
19 30 36 33 27 35 15 354 348 334 3 197 209 208 208 209 203 206 207 213 206 197 200 205 211 180 171 153 191 189 210 186 202 160 175 184 189 203 219 222 226 219 215
20 17 24 22 21 23 8 12 3 350 32 9 308 209 214 200 202 199 199 203 206 203 208 205 209 208 210 193 176 193 192 153 209 204 177 206 174 203 212 204 213 216 214
6 7 15 13 20 14 3 15 9 13 7 39 38 356 218 213 200 203 201 200 201 203 205 202 210 211 215 208 195 193 197 201 210 199 191 219 183 214 205 219 209 205 211
11 5 0 360 14 10 358 20 18 8 8 11 37 23 2 349 310 212 198 209 213 210 213 214 218 220 217 209 205 208 209 209 2 330 193 197 184 217 179 214 209 206 210
354 0 357 354 0 0 16 20 21 19 5 6 28 42 22 358 4 5 213 195 207 215 216 216 231 215 190 183 190 165 180 155 216 202 214 139 223 173 189 238 215 207 206
343 341 351 350 10 8 9 21 21 20 8 14 7 12 13 11 345 17 30 355 199 210 206 201 223 220 214 196 183 202 189 206 142 92 242 164 128 134 306 238 240 211 212